Private Wetterstation Wechselburg
Wetterdaten: Sonntag, 26.12.2021
Datum Zeit Temp. +2m Bodentemp. Temp.+5cm Temp. Wind Windchill X Diff Temp. Feuchte +2m Feuchte +5cm Luftdruck Regen Wind Richtung Richtung Sonnenschein Taupunkt Windchill Windben
26.12.2021 00:00 -11,5 C 4,3 C -11,7 C -12,1 C -13,3 C 0,0 C 88 % 91 % 1015,1 hPa 0,0 l/m 0,0 km/h (0 Bft) O-SO 112 0 min -13,1 C -13,3 C 0,0 km/h (0 Bft)
26.12.2021 00:05 -11,6 C 4,3 C -11,8 C -12,3 C -13,7 C 0,0 C 88 % 91 % 1015,1 hPa 0,0 l/m 0,0 km/h (0 Bft) O-SO 112 0 min -13,2 C -13,7 C 0,0 km/h (0 Bft)
26.12.2021 00:10 -11,6 C 4,3 C -11,9 C -12,3 C -13,8 C 0,0 C 87 % 91 % 1015,4 hPa 0,0 l/m 0,0 km/h (0 Bft) O-SO 112 0 min -13,3 C -13,8 C 0,0 km/h (0 Bft)
26.12.2021 00:15 -11,7 C 4,2 C -12,0 C -12,4 C -13,9 C 0,0 C 87 % 91 % 1015,4 hPa 0,0 l/m 0,0 km/h (0 Bft) O-SO 112 0 min -13,4 C -13,9 C 0,0 km/h (0 Bft)
26.12.2021 00:20 -11,9 C 4,2 C -12,1 C -12,5 C -13,8 C 0,0 C 87 % 91 % 1015,4 hPa 0,0 l/m 0,0 km/h (0 Bft) O-SO 112 0 min -13,6 C -13,8 C 0,0 km/h (0 Bft)
26.12.2021 00:25 -11,9 C 4,2 C -12,0 C -12,5 C -13,8 C 0,0 C 87 % 91 % 1015,4 hPa 0,0 l/m 0,0 km/h (0 Bft) O-SO 112 0 min -13,6 C -13,8 C 0,0 km/h (0 Bft)
26.12.2021 00:30 -11,9 C 4,2 C -12,0 C -12,5 C -13,7 C 0,0 C 87 % 91 % 1015,4 hPa 0,0 l/m 0,0 km/h (0 Bft) O-SO 112 0 min -13,6 C -13,7 C 0,0 km/h (0 Bft)
26.12.2021 00:35 -12,0 C 4,2 C -12,1 C -12,6 C -13,7 C 0,0 C 87 % 91 % 1015,4 hPa 0,0 l/m 0,0 km/h (0 Bft) O-SO 112 0 min -13,7 C -13,7 C 0,0 km/h (0 Bft)
26.12.2021 00:40 -12,1 C 4,2 C -12,1 C -12,6 C -13,7 C 0,0 C 87 % 91 % 1015,4 hPa 0,0 l/m 0,0 km/h (0 Bft) O-SO 112 0 min -13,8 C -13,7 C 0,0 km/h (0 Bft)
26.12.2021 00:45 -12,1 C 4,2 C -12,3 C -12,7 C -13,8 C 0,0 C 87 % 91 % 1015,4 hPa 0,0 l/m 0,0 km/h (0 Bft) O-SO 112 0 min -13,8 C -13,8 C 0,0 km/h (0 Bft)
26.12.2021 00:50 -12,1 C 4,2 C -12,4 C -12,6 C -13,7 C 0,0 C 87 % 91 % 1014,8 hPa 0,0 l/m 0,0 km/h (0 Bft) O-SO 112 0 min -13,8 C -13,7 C 0,0 km/h (0 Bft)
26.12.2021 00:55 -12,1 C 4,2 C -12,5 C -12,6 C -13,7 C 0,0 C 87 % 91 % 1014,8 hPa 0,0 l/m 0,0 km/h (0 Bft) O-SO 112 0 min -13,8 C -13,7 C 0,0 km/h (0 Bft)
26.12.2021 01:00 -12,3 C 4,2 C -12,5 C -12,8 C -13,8 C 0,0 C 87 % 91 % 1014,8 hPa 0,0 l/m 0,0 km/h (0 Bft) O-SO 112 0 min -14,0 C -13,8 C 0,0 km/h (0 Bft)
26.12.2021 01:05 -12,4 C 4,2 C -12,5 C -12,9 C -13,9 C 0,0 C 87 % 91 % 1014,8 hPa 0,0 l/m 0,0 km/h (0 Bft) O-SO 112 0 min -14,1 C -13,9 C 0,0 km/h (0 Bft)
26.12.2021 01:10 -12,4 C 4,1 C -12,6 C -12,9 C -13,9 C 0,0 C 87 % 91 % 1015,0 hPa 0,0 l/m 0,0 km/h (0 Bft) O-SO 112 0 min -14,1 C -13,9 C 0,0 km/h (0 Bft)
26.12.2021 01:15 -12,5 C 4,1 C -12,6 C -13,0 C -14,0 C 0,0 C 87 % 91 % 1015,0 hPa 0,0 l/m 0,0 km/h (0 Bft) O-SO 112 0 min -14,2 C -14,0 C 0,0 km/h (0 Bft)
26.12.2021 01:20 -12,5 C 4,1 C -12,5 C -13,0 C -14,0 C 0,0 C 87 % 91 % 1015,0 hPa 0,0 l/m 0,0 km/h (0 Bft) O-SO 112 0 min -14,2 C -14,0 C 0,0 km/h (0 Bft)
26.12.2021 01:25 -12,5 C 4,1 C -12,4 C -13,0 C -13,9 C 0,0 C 87 % 91 % 1015,0 hPa 0,0 l/m 0,0 km/h (0 Bft) O-SO 112 0 min -14,2 C -13,9 C 0,0 km/h (0 Bft)
26.12.2021 01:30 -12,5 C 4,1 C -12,5 C -13,0 C -14,0 C 0,0 C 87 % 91 % 1015,0 hPa 0,0 l/m 0,0 km/h (0 Bft) O-SO 112 0 min -14,2 C -14,0 C 0,0 km/h (0 Bft)
26.12.2021 01:35 -12,5 C 4,1 C -12,7 C -13,1 C -14,4 C 0,0 C 87 % 91 % 1015,0 hPa 0,0 l/m 0,0 km/h (0 Bft) O-SO 112 0 min -14,2 C -14,4 C 0,0 km/h (0 Bft)
26.12.2021 01:40 -12,7 C 4,1 C -12,7 C -13,3 C -14,5 C 0,0 C 87 % 91 % 1015,0 hPa 0,0 l/m 0,0 km/h (0 Bft) O-SO 112 0 min -14,4 C -14,5 C 0,0 km/h (0 Bft)
26.12.2021 01:45 -12,9 C 4,1 C -12,9 C -13,5 C -14,8 C 0,0 C 87 % 91 % 1015,0 hPa 0,0 l/m 0,0 km/h (0 Bft) O-SO 112 0 min -14,6 C -14,8 C 0,0 km/h (0 Bft)
26.12.2021 01:50 -12,9 C 4,1 C -12,9 C -13,6 C -14,9 C 0,0 C 87 % 91 % 1014,8 hPa 0,0 l/m 0,0 km/h (0 Bft) O-SO 112 0 min -14,6 C -14,9 C 0,0 km/h (0 Bft)
26.12.2021 01:55 -13,1 C 4,1 C -13,1 C -13,7 C -15,0 C 0,0 C 86 % 91 % 1014,8 hPa 0,0 l/m 0,0 km/h (0 Bft) O-SO 112 0 min -14,9 C -15,0 C 0,0 km/h (0 Bft)
26.12.2021 02:00 -13,2 C 4,1 C -13,1 C -13,8 C -15,0 C 0,0 C 86 % 91 % 1014,8 hPa 0,0 l/m 0,0 km/h (0 Bft) O-SO 112 0 min -15,0 C -15,0 C 0,0 km/h (0 Bft)
26.12.2021 02:05 -13,3 C 4,0 C -13,1 C -13,9 C -15,2 C 0,0 C 86 % 91 % 1014,8 hPa 0,0 l/m 0,0 km/h (0 Bft) O-SO 112 0 min -15,1 C -15,2 C 0,0 km/h (0 Bft)
26.12.2021 02:10 -13,3 C 4,0 C -13,1 C -13,9 C -15,2 C 0,0 C 86 % 91 % 1014,8 hPa 0,0 l/m 0,0 km/h (0 Bft) O-SO 112 0 min -15,1 C -15,2 C 0,0 km/h (0 Bft)
26.12.2021 02:15 -13,3 C 4,0 C -13,0 C -13,9 C -15,0 C 0,0 C 86 % 91 % 1014,8 hPa 0,0 l/m 0,0 km/h (0 Bft) O-SO 112 0 min -15,1 C -15,0 C 0,0 km/h (0 Bft)
26.12.2021 02:20 -13,3 C 4,0 C -13,1 C -13,8 C -14,9 C 0,0 C 86 % 91 % 1014,8 hPa 0,0 l/m 0,0 km/h (0 Bft) O-SO 112 0 min -15,1 C -14,9 C 0,0 km/h (0 Bft)
26.12.2021 02:25 -13,3 C 4,0 C -13,2 C -13,9 C -15,0 C 0,0 C 86 % 91 % 1014,8 hPa 0,0 l/m 0,0 km/h (0 Bft) O-SO 112 0 min -15,1 C -15,0 C 0,0 km/h (0 Bft)
26.12.2021 02:30 -13,3 C 4,0 C -13,2 C -13,9 C -15,0 C 0,0 C 86 % 91 % 1014,6 hPa 0,0 l/m 0,0 km/h (0 Bft) O-SO 112 0 min -15,1 C -15,0 C 0,0 km/h (0 Bft)
26.12.2021 02:35 -13,5 C 4,0 C -13,3 C -14,1 C -15,2 C 0,0 C 86 % 91 % 1014,6 hPa 0,0 l/m 0,0 km/h (0 Bft) O-SO 112 0 min -15,3 C -15,2 C 0,0 km/h (0 Bft)
26.12.2021 02:40 -13,5 C 4,0 C -13,3 C -14,0 C -15,0 C 0,0 C 87 % 91 % 1014,6 hPa 0,0 l/m 0,0 km/h (0 Bft) O-SO 112 0 min -15,2 C -15,0 C 0,0 km/h (0 Bft)
26.12.2021 02:45 -13,5 C 4,0 C -13,1 C -14,0 C -14,9 C 0,0 C 87 % 91 % 1014,6 hPa 0,0 l/m 0,0 km/h (0 Bft) O-SO 112 0 min -15,2 C -14,9 C 0,0 km/h (0 Bft)
26.12.2021 02:50 -13,3 C 4,0 C -13,3 C -13,8 C -14,9 C 0,0 C 87 % 91 % 1014,6 hPa 0,0 l/m 0,0 km/h (0 Bft) O-SO 112 0 min -15,0 C -14,9 C 0,0 km/h (0 Bft)
26.12.2021 02:55 -13,3 C 4,0 C -13,2 C -13,8 C -14,9 C 0,0 C 87 % 91 % 1014,6 hPa 0,0 l/m 0,0 km/h (0 Bft) O-SO 112 0 min -15,0 C -14,9 C 0,0 km/h (0 Bft)
26.12.2021 03:00 -13,3 C 4,0 C -13,2 C -13,9 C -15,0 C 0,0 C 87 % 91 % 1014,6 hPa 0,0 l/m 0,0 km/h (0 Bft) O-SO 112 0 min -15,0 C -15,0 C 0,0 km/h (0 Bft)
26.12.2021 03:05 -13,5 C 4,0 C -13,3 C -14,0 C -14,9 C 0,0 C 87 % 91 % 1014,6 hPa 0,0 l/m 0,0 km/h (0 Bft) O-SO 112 0 min -15,2 C -14,9 C 0,0 km/h (0 Bft)
26.12.2021 03:10 -13,3 C 4,0 C -13,1 C -13,7 C -14,6 C 0,0 C 87 % 91 % 1014,6 hPa 0,0 l/m 0,0 km/h (0 Bft) O-SO 112 0 min -15,0 C -14,6 C 0,0 km/h (0 Bft)
26.12.2021 03:15 -13,3 C 4,0 C -13,0 C -13,7 C -14,4 C 0,0 C 87 % 91 % 1014,6 hPa 0,0 l/m 0,0 km/h (0 Bft) O-SO 112 0 min -15,0 C -14,4 C 0,0 km/h (0 Bft)
26.12.2021 03:20 -13,3 C 3,9 C -13,0 C -13,7 C -14,6 C 0,0 C 87 % 91 % 1014,6 hPa 0,0 l/m 0,0 km/h (0 Bft) O-SO 112 0 min -15,0 C -14,6 C 0,0 km/h (0 Bft)
26.12.2021 03:25 -13,3 C 3,9 C -13,1 C -13,8 C -14,9 C 0,0 C 87 % 91 % 1014,6 hPa 0,0 l/m 0,0 km/h (0 Bft) O-SO 112 0 min -15,0 C -14,9 C 0,0 km/h (0 Bft)
26.12.2021 03:30 -13,5 C 3,9 C -13,2 C -14,0 C -15,0 C 0,0 C 87 % 91 % 1014,6 hPa 0,0 l/m 0,0 km/h (0 Bft) O-SO 112 0 min -15,2 C -15,0 C 0,0 km/h (0 Bft)
26.12.2021 03:35 -13,7 C 3,9 C -13,2 C -14,2 C -15,2 C 0,0 C 87 % 91 % 1014,6 hPa 0,0 l/m 0,0 km/h (0 Bft) O-SO 112 0 min -15,4 C -15,2 C 0,0 km/h (0 Bft)
26.12.2021 03:40 -13,7 C 3,9 C -13,3 C -14,2 C -15,2 C 0,0 C 87 % 91 % 1014,6 hPa 0,0 l/m 0,0 km/h (0 Bft) O-SO 112 0 min -15,4 C -15,2 C 0,0 km/h (0 Bft)
26.12.2021 03:45 -13,7 C 3,9 C -13,3 C -14,3 C -15,4 C 0,0 C 87 % 91 % 1014,6 hPa 0,0 l/m 0,0 km/h (0 Bft) O-SO 112 0 min -15,4 C -15,4 C 0,0 km/h (0 Bft)
26.12.2021 03:50 -13,7 C 3,9 C -13,1 C -14,2 C -15,2 C 0,0 C 87 % 91 % 1014,2 hPa 0,0 l/m 0,0 km/h (0 Bft) O-SO 112 0 min -15,4 C -15,2 C 0,0 km/h (0 Bft)
26.12.2021 03:55 -13,7 C 3,9 C -13,1 C -14,1 C -14,9 C 0,0 C 87 % 91 % 1014,2 hPa 0,0 l/m 0,0 km/h (0 Bft) O-SO 112 0 min -15,4 C -14,9 C 0,0 km/h (0 Bft)
26.12.2021 04:00 -13,7 C 3,9 C -13,1 C -14,1 C -15,0 C 0,0 C 87 % 91 % 1014,2 hPa 0,0 l/m 0,0 km/h (0 Bft) O-SO 112 0 min -15,4 C -15,0 C 0,0 km/h (0 Bft)
26.12.2021 04:05 -13,7 C 3,9 C -13,1 C -14,1 C -14,9 C 0,0 C 87 % 91 % 1014,2 hPa 0,0 l/m 0,0 km/h (0 Bft) O-SO 112 0 min -15,4 C -14,9 C 0,0 km/h (0 Bft)
26.12.2021 04:10 -13,7 C 3,9 C -13,1 C -14,1 C -15,0 C 0,0 C 87 % 91 % 1014,6 hPa 0,0 l/m 0,0 km/h (0 Bft) O-SO 112 0 min -15,4 C -15,0 C 0,0 km/h (0 Bft)
26.12.2021 04:15 -13,7 C 3,9 C -13,1 C -14,1 C -14,9 C 0,0 C 87 % 91 % 1014,6 hPa 0,0 l/m 0,0 km/h (0 Bft) O-SO 112 0 min -15,4 C -14,9 C 0,0 km/h (0 Bft)
26.12.2021 04:20 -13,7 C 3,9 C -13,0 C -14,1 C -14,8 C 0,0 C 87 % 91 % 1014,6 hPa 0,0 l/m 0,0 km/h (0 Bft) O-SO 112 0 min -15,4 C -14,8 C 0,0 km/h (0 Bft)
26.12.2021 04:25 -13,7 C 3,9 C -12,9 C -14,1 C -14,8 C 0,0 C 87 % 91 % 1014,6 hPa 0,0 l/m 0,0 km/h (0 Bft) O-SO 112 0 min -15,4 C -14,8 C 0,0 km/h (0 Bft)
26.12.2021 04:30 -13,6 C 3,9 C -13,0 C -14,0 C -14,9 C 0,0 C 87 % 91 % 1014,5 hPa 0,0 l/m 0,0 km/h (0 Bft) O-SO 112 0 min -15,3 C -14,9 C 0,0 km/h (0 Bft)
26.12.2021 04:35 -13,6 C 3,9 C -13,2 C -14,1 C -15,0 C 0,0 C 87 % 90 % 1014,5 hPa 0,0 l/m 0,0 km/h (0 Bft) O-SO 112 0 min -15,3 C -15,0 C 0,0 km/h (0 Bft)
26.12.2021 04:40 -13,7 C 3,9 C -13,2 C -14,1 C -15,0 C 0,0 C 87 % 90 % 1014,5 hPa 0,0 l/m 0,0 km/h (0 Bft) O-SO 112 0 min -15,4 C -15,0 C 0,0 km/h (0 Bft)
26.12.2021 04:45 -13,7 C 3,9 C -13,2 C -14,2 C -15,2 C 0,0 C 87 % 90 % 1014,5 hPa 0,0 l/m 0,0 km/h (0 Bft) O-SO 112 0 min -15,4 C -15,2 C 0,0 km/h (0 Bft)
26.12.2021 04:50 -13,7 C 3,9 C -13,2 C -14,3 C -15,4 C 0,0 C 87 % 90 % 1014,1 hPa 0,0 l/m 0,0 km/h (0 Bft) O-SO 112 0 min -15,4 C -15,4 C 0,0 km/h (0 Bft)
26.12.2021 04:55 -13,8 C 3,8 C -13,1 C -14,3 C -15,4 C 0,0 C 87 % 90 % 1014,1 hPa 0,0 l/m 0,0 km/h (0 Bft) O-SO 112 0 min -15,5 C -15,4 C 0,0 km/h (0 Bft)
26.12.2021 05:00 -13,7 C 3,8 C -13,1 C -14,2 C -15,2 C 0,0 C 87 % 90 % 1014,1 hPa 0,0 l/m 0,0 km/h (0 Bft) O-SO 112 0 min -15,4 C -15,2 C 0,0 km/h (0 Bft)
26.12.2021 05:05 -13,7 C 3,8 C -13,1 C -14,2 C -15,2 C 0,0 C 87 % 90 % 1014,1 hPa 0,0 l/m 0,0 km/h (0 Bft) O-SO 112 0 min -15,4 C -15,2 C 0,0 km/h (0 Bft)
26.12.2021 05:10 -13,7 C 3,8 C -13,1 C -14,2 C -15,2 C 0,0 C 87 % 90 % 1014,3 hPa 0,0 l/m 0,0 km/h (0 Bft) O-SO 112 0 min -15,4 C -15,2 C 0,0 km/h (0 Bft)
26.12.2021 05:15 -13,8 C 3,8 C -13,1 C -14,3 C -15,2 C 0,0 C 87 % 90 % 1014,3 hPa 0,0 l/m 0,0 km/h (0 Bft) O-SO 112 0 min -15,5 C -15,2 C 0,0 km/h (0 Bft)
26.12.2021 05:20 -13,7 C 3,8 C -13,1 C -14,2 C -15,2 C 0,0 C 87 % 90 % 1014,3 hPa 0,0 l/m 0,0 km/h (0 Bft) O-SO 112 0 min -15,4 C -15,2 C 0,0 km/h (0 Bft)
26.12.2021 05:25 -13,9 C 3,8 C -13,0 C -14,3 C -15,2 C 0,0 C 87 % 91 % 1014,3 hPa 0,0 l/m 0,0 km/h (0 Bft) O-SO 112 0 min -15,6 C -15,2 C 0,0 km/h (0 Bft)
26.12.2021 05:30 -13,7 C 3,8 C -13,0 C -14,1 C -15,0 C 0,0 C 87 % 91 % 1014,1 hPa 0,0 l/m 0,0 km/h (0 Bft) O-SO 112 0 min -15,4 C -15,0 C 0,0 km/h (0 Bft)
26.12.2021 05:35 -13,7 C 3,8 C -12,9 C -14,1 C -14,9 C 0,0 C 87 % 91 % 1014,1 hPa 0,0 l/m 0,0 km/h (0 Bft) O-SO 112 0 min -15,4 C -14,9 C 0,0 km/h (0 Bft)
26.12.2021 05:40 -13,7 C 3,8 C -12,9 C -14,1 C -14,8 C 0,0 C 87 % 91 % 1014,1 hPa 0,0 l/m 0,0 km/h (0 Bft) O-SO 112 0 min -15,4 C -14,8 C 0,0 km/h (0 Bft)
26.12.2021 05:45 -13,7 C 3,8 C -12,9 C -14,1 C -14,9 C 0,0 C 87 % 91 % 1014,1 hPa 0,0 l/m 0,0 km/h (0 Bft) O-SO 112 0 min -15,4 C -14,9 C 0,0 km/h (0 Bft)
26.12.2021 05:50 -13,7 C 3,8 C -12,9 C -14,1 C -14,9 C 0,0 C 87 % 91 % 1014,1 hPa 0,0 l/m 0,0 km/h (0 Bft) O-SO 112 0 min -15,4 C -14,9 C 0,0 km/h (0 Bft)
26.12.2021 05:55 -13,7 C 3,8 C -12,9 C -14,1 C -15,0 C 0,0 C 87 % 91 % 1014,1 hPa 0,0 l/m 0,0 km/h (0 Bft) O-SO 112 0 min -15,4 C -15,0 C 0,0 km/h (0 Bft)
26.12.2021 06:00 -13,7 C 3,8 C -12,9 C -14,1 C -15,0 C 0,0 C 87 % 91 % 1014,1 hPa 0,0 l/m 0,0 km/h (0 Bft) O-SO 112 0 min -15,4 C -15,0 C 0,0 km/h (0 Bft)
26.12.2021 06:05 -13,7 C 3,8 C -13,0 C -14,1 C -15,0 C 0,0 C 87 % 90 % 1014,1 hPa 0,0 l/m 0,0 km/h (0 Bft) O-SO 112 0 min -15,4 C -15,0 C 0,0 km/h (0 Bft)
26.12.2021 06:10 -13,7 C 3,8 C -12,9 C -14,1 C -15,0 C 0,0 C 87 % 91 % 1014,1 hPa 0,0 l/m 0,0 km/h (0 Bft) O-SO 112 0 min -15,4 C -15,0 C 0,0 km/h (0 Bft)
26.12.2021 06:15 -13,7 C 3,8 C -12,9 C -14,1 C -14,9 C 0,0 C 87 % 91 % 1014,1 hPa 0,0 l/m 0,0 km/h (0 Bft) O-SO 112 0 min -15,4 C -14,9 C 0,0 km/h (0 Bft)
26.12.2021 06:20 -13,7 C 3,8 C -12,9 C -14,1 C -14,9 C 0,0 C 87 % 91 % 1014,1 hPa 0,0 l/m 0,0 km/h (0 Bft) O-SO 112 0 min -15,4 C -14,9 C 0,0 km/h (0 Bft)
26.12.2021 06:25 -13,7 C 3,8 C -13,0 C -14,1 C -14,9 C 0,0 C 87 % 90 % 1014,1 hPa 0,0 l/m 0,0 km/h (0 Bft) O-SO 112 0 min -15,4 C -14,9 C 0,0 km/h (0 Bft)
26.12.2021 06:30 -13,7 C 3,8 C -13,0 C -14,1 C -14,9 C 0,0 C 87 % 90 % 1014,2 hPa 0,0 l/m 0,0 km/h (0 Bft) O-SO 112 0 min -15,4 C -14,9 C 0,0 km/h (0 Bft)
26.12.2021 06:35 -13,7 C 3,8 C -12,9 C -14,1 C -15,0 C 0,0 C 87 % 91 % 1014,2 hPa 0,0 l/m 0,0 km/h (0 Bft) O-SO 112 0 min -15,4 C -15,0 C 0,0 km/h (0 Bft)
26.12.2021 06:40 -13,7 C 3,8 C -13,0 C -14,1 C -14,9 C 0,0 C 87 % 90 % 1014,2 hPa 0,0 l/m 0,0 km/h (0 Bft) O-SO 112 0 min -15,4 C -14,9 C 0,0 km/h (0 Bft)
26.12.2021 06:45 -13,7 C 3,8 C -12,9 C -14,1 C -14,9 C 0,0 C 87 % 91 % 1014,2 hPa 0,0 l/m 0,0 km/h (0 Bft) O-SO 112 0 min -15,4 C -14,9 C 0,0 km/h (0 Bft)
26.12.2021 06:50 -13,7 C 3,8 C -12,9 C -14,1 C -14,8 C 0,0 C 87 % 90 % 1014,2 hPa 0,0 l/m 0,0 km/h (0 Bft) O-SO 112 0 min -15,4 C -14,8 C 0,0 km/h (0 Bft)
26.12.2021 06:55 -13,7 C 3,8 C -12,9 C -14,1 C -14,9 C 0,0 C 87 % 91 % 1014,2 hPa 0,0 l/m 0,0 km/h (0 Bft) O-SO 112 0 min -15,4 C -14,9 C 0,0 km/h (0 Bft)
26.12.2021 07:00 -13,7 C 3,8 C -12,9 C -14,1 C -14,9 C 0,0 C 87 % 91 % 1014,2 hPa 0,0 l/m 0,0 km/h (0 Bft) O-SO 112 0 min -15,4 C -14,9 C 0,0 km/h (0 Bft)
26.12.2021 07:05 -13,7 C 3,8 C -12,9 C -14,1 C -15,0 C 0,0 C 87 % 91 % 1014,2 hPa 0,0 l/m 0,0 km/h (0 Bft) O-SO 112 0 min -15,4 C -15,0 C 0,0 km/h (0 Bft)
26.12.2021 07:10 -13,7 C 3,6 C -13,0 C -14,1 C -15,0 C 0,0 C 87 % 90 % 1014,4 hPa 0,0 l/m 0,0 km/h (0 Bft) O-SO 112 0 min -15,4 C -15,0 C 0,0 km/h (0 Bft)
26.12.2021 07:15 -13,7 C 3,6 C -13,0 C -14,1 C -15,0 C 0,0 C 87 % 90 % 1014,4 hPa 0,0 l/m 0,0 km/h (0 Bft) O-SO 112 0 min -15,4 C -15,0 C 0,0 km/h (0 Bft)
26.12.2021 07:20 -13,7 C 3,6 C -12,9 C -14,1 C -15,0 C 0,0 C 87 % 91 % 1014,4 hPa 0,0 l/m 0,0 km/h (0 Bft) O-SO 112 0 min -15,4 C -15,0 C 0,0 km/h (0 Bft)
26.12.2021 07:25 -13,7 C 3,6 C -13,1 C -14,2 C -15,2 C 0,0 C 87 % 90 % 1014,4 hPa 0,0 l/m 0,0 km/h (0 Bft) O-SO 112 0 min -15,4 C -15,2 C 0,0 km/h (0 Bft)
26.12.2021 07:30 -13,7 C 3,6 C -13,1 C -14,2 C -15,2 C 0,0 C 87 % 90 % 1013,9 hPa 0,0 l/m 0,0 km/h (0 Bft) O-SO 112 0 min -15,4 C -15,2 C 0,0 km/h (0 Bft)
26.12.2021 07:35 -13,7 C 3,6 C -13,2 C -14,3 C -15,4 C 0,0 C 87 % 90 % 1013,9 hPa 0,0 l/m 0,0 km/h (0 Bft) O-SO 112 0 min -15,4 C -15,4 C 0,0 km/h (0 Bft)
26.12.2021 07:40 -13,7 C 3,6 C -13,1 C -14,3 C -15,4 C 0,0 C 87 % 90 % 1013,9 hPa 0,0 l/m 0,0 km/h (0 Bft) O-SO 112 0 min -15,4 C -15,4 C 0,0 km/h (0 Bft)
26.12.2021 07:45 -13,7 C 3,6 C -13,1 C -14,1 C -15,0 C 0,0 C 87 % 90 % 1013,9 hPa 0,0 l/m 0,0 km/h (0 Bft) O-SO 112 0 min -15,4 C -15,0 C 0,0 km/h (0 Bft)
26.12.2021 07:50 -13,7 C 3,6 C -13,1 C -14,2 C -15,2 C 0,0 C 87 % 90 % 1014,4 hPa 0,0 l/m 0,0 km/h (0 Bft) O-SO 112 0 min -15,4 C -15,2 C 0,0 km/h (0 Bft)
26.12.2021 07:55 -13,7 C 3,6 C -13,1 C -14,1 C -15,0 C 0,0 C 87 % 90 % 1014,4 hPa 0,0 l/m 0,0 km/h (0 Bft) O-SO 112 0 min -15,4 C -15,0 C 0,0 km/h (0 Bft)
26.12.2021 08:00 -13,7 C 3,6 C -13,1 C -14,1 C -15,0 C 0,0 C 87 % 90 % 1014,4 hPa 0,0 l/m 0,0 km/h (0 Bft) O-SO 112 0 min -15,4 C -15,0 C 0,0 km/h (0 Bft)
26.12.2021 08:05 -13,7 C 3,6 C -13,1 C -14,2 C -15,2 C 0,0 C 87 % 90 % 1014,4 hPa 0,0 l/m 0,0 km/h (0 Bft) O-SO 112 0 min -15,4 C -15,2 C 0,0 km/h (0 Bft)
26.12.2021 08:10 -13,7 C 3,6 C -13,1 C -14,2 C -15,2 C 0,0 C 87 % 90 % 1014,3 hPa 0,0 l/m 0,0 km/h (0 Bft) O-SO 112 0 min -15,4 C -15,2 C 0,0 km/h (0 Bft)
26.12.2021 08:15 -13,7 C 3,6 C -13,0 C -14,3 C -15,4 C 0,0 C 87 % 90 % 1014,3 hPa 0,0 l/m 0,0 km/h (0 Bft) O-SO 112 0 min -15,4 C -15,4 C 0,0 km/h (0 Bft)
26.12.2021 08:20 -13,7 C 3,6 C -13,1 C -14,3 C -15,4 C 0,0 C 87 % 90 % 1014,3 hPa 0,0 l/m 0,0 km/h (0 Bft) O-SO 112 0 min -15,4 C -15,4 C 0,0 km/h (0 Bft)
26.12.2021 08:25 -13,7 C 3,6 C -13,1 C -14,2 C -15,2 C 0,0 C 87 % 90 % 1014,3 hPa 0,0 l/m 0,0 km/h (0 Bft) O-SO 112 0 min -15,4 C -15,2 C 0,0 km/h (0 Bft)
26.12.2021 08:30 -13,7 C 3,6 C -13,0 C -14,1 C -15,0 C 0,0 C 87 % 90 % 1014,9 hPa 0,0 l/m 0,0 km/h (0 Bft) O-SO 112 0 min -15,4 C -15,0 C 0,0 km/h (0 Bft)
26.12.2021 08:35 -13,7 C 3,6 C -13,0 C -14,1 C -14,8 C 0,0 C 87 % 90 % 1014,9 hPa 0,0 l/m 0,0 km/h (0 Bft) O-SO 112 0 min -15,4 C -14,8 C 0,0 km/h (0 Bft)
26.12.2021 08:40 -13,5 C 3,6 C -12,9 C -13,9 C -14,8 C 0,0 C 87 % 90 % 1014,9 hPa 0,0 l/m 0,0 km/h (0 Bft) O-SO 112 0 min -15,2 C -14,8 C 0,0 km/h (0 Bft)
26.12.2021 08:45 -13,6 C 3,6 C -12,8 C -13,9 C -14,5 C 0,0 C 87 % 90 % 1014,9 hPa 0,0 l/m 0,0 km/h (0 Bft) O-SO 112 0 min -15,3 C -14,5 C 0,0 km/h (0 Bft)
26.12.2021 08:55 -13,5 C 3,6 C -12,6 C -13,8 C -14,4 C 0,0 C 87 % 90 % 1014,3 hPa 0,0 l/m 0,0 km/h (0 Bft) O-SO 112 0 min -15,2 C -14,4 C 0,0 km/h (0 Bft)
26.12.2021 09:00 -13,3 C 3,6 C -12,6 C -13,6 C -14,3 C 0,0 C 87 % 90 % 1014,3 hPa 0,0 l/m 0,0 km/h (0 Bft) O-SO 112 0 min -15,0 C -14,3 C 0,0 km/h (0 Bft)
26.12.2021 09:05 -13,3 C 3,6 C -12,5 C -13,5 C -14,0 C 0,0 C 87 % 90 % 1014,3 hPa 0,0 l/m 0,0 km/h (0 Bft) O-SO 112 0 min -15,0 C -14,0 C 0,0 km/h (0 Bft)
26.12.2021 09:10 -13,3 C 3,6 C -12,5 C -13,5 C -14,0 C 0,0 C 87 % 90 % 1014,2 hPa 0,0 l/m 0,0 km/h (0 Bft) O-SO 112 0 min -15,0 C -14,0 C 0,0 km/h (0 Bft)
26.12.2021 09:15 -13,1 C 3,6 C -12,3 C -13,3 C -13,8 C 0,0 C 87 % 90 % 1014,2 hPa 0,0 l/m 0,0 km/h (0 Bft) O-SO 112 0 min -14,8 C -13,8 C 0,0 km/h (0 Bft)
26.12.2021 09:20 -13,0 C 3,6 C -12,2 C -13,2 C -13,5 C 0,0 C 87 % 90 % 1014,2 hPa 0,0 l/m 0,0 km/h (0 Bft) O-SO 112 0 min -14,7 C -13,5 C 0,0 km/h (0 Bft)
26.12.2021 09:25 -12,9 C 3,6 C -12,1 C -13,0 C -13,2 C 0,0 C 87 % 90 % 1014,2 hPa 0,0 l/m 0,0 km/h (0 Bft) O-SO 112 0 min -14,6 C -13,2 C 0,0 km/h (0 Bft)
26.12.2021 09:30 -12,7 C 3,6 C -11,9 C -12,8 C -12,9 C 0,0 C 88 % 90 % 1014,3 hPa 0,0 l/m 0,0 km/h (0 Bft) O-SO 112 0 min -14,3 C -12,9 C 0,0 km/h (0 Bft)
26.12.2021 09:35 -12,5 C 3,6 C -11,7 C -12,6 C -12,7 C 0,0 C 88 % 91 % 1014,3 hPa 0,0 l/m 0,0 km/h (0 Bft) O-SO 112 0 min -14,1 C -12,7 C 0,0 km/h (0 Bft)
26.12.2021 09:40 -12,5 C 3,6 C -11,6 C -12,5 C -12,6 C 0,0 C 88 % 91 % 1014,3 hPa 0,0 l/m 0,0 km/h (0 Bft) O-SO 112 0 min -14,1 C -12,6 C 0,0 km/h (0 Bft)
26.12.2021 09:45 -12,3 C 3,6 C -11,4 C -12,3 C -12,4 C 0,0 C 88 % 91 % 1014,3 hPa 0,0 l/m 0,0 km/h (0 Bft) O-SO 112 0 min -13,9 C -12,4 C 0,0 km/h (0 Bft)
26.12.2021 09:50 -12,1 C 3,6 C -11,3 C -12,1 C -12,1 C 0,0 C 88 % 91 % 1014,1 hPa 0,0 l/m 0,0 km/h (0 Bft) O-SO 112 0 min -13,7 C -12,1 C 0,0 km/h (0 Bft)
26.12.2021 09:55 -11,9 C 3,6 C -11,1 C -11,7 C -11,7 C 0,2 C 88 % 91 % 1014,1 hPa 0,0 l/m 0,0 km/h (0 Bft) O-SO 112 0 min -13,5 C -11,7 C 0,0 km/h (0 Bft)
26.12.2021 10:00 -11,7 C 3,6 C -10,9 C -11,4 C -11,4 C 0,3 C 88 % 91 % 1014,1 hPa 0,0 l/m 0,0 km/h (0 Bft) O-SO 112 0 min -13,3 C -11,4 C 0,0 km/h (0 Bft)
26.12.2021 10:05 -11,4 C 3,6 C -10,8 C -11,0 C -11,0 C 0,4 C 88 % 91 % 1014,1 hPa 0,0 l/m 0,0 km/h (0 Bft) O-SO 112 0 min -13,0 C -11,0 C 0,0 km/h (0 Bft)
26.12.2021 10:10 -11,2 C 3,6 C -10,6 C -10,8 C -10,8 C 0,4 C 88 % 91 % 1014,1 hPa 0,0 l/m 0,0 km/h (0 Bft) O-SO 112 0 min -12,8 C -10,8 C 0,0 km/h (0 Bft)
26.12.2021 10:15 -10,9 C 3,6 C -10,4 C -10,2 C -10,2 C 0,7 C 89 % 91 % 1014,1 hPa 0,0 l/m 0,0 km/h (0 Bft) O-SO 112 0 min -12,3 C -10,2 C 0,0 km/h (0 Bft)
26.12.2021 10:20 -10,8 C 3,6 C -10,2 C -9,6 C -9,6 C 1,2 C 88 % 91 % 1014,1 hPa 0,0 l/m 0,0 km/h (0 Bft) O-SO 112 0 min -12,4 C -9,6 C 0,0 km/h (0 Bft)
26.12.2021 10:25 -10,5 C 3,6 C -9,7 C -8,7 C -8,7 C 1,8 C 88 % 92 % 1014,1 hPa 0,0 l/m 0,0 km/h (0 Bft) O-SO 112 0 min -12,1 C -8,7 C 0,0 km/h (0 Bft)
26.12.2021 10:30 -10,1 C 3,6 C -9,4 C -8,2 C -8,2 C 1,9 C 89 % 92 % 1014,1 hPa 0,0 l/m 0,0 km/h (0 Bft) O-SO 112 0 min -11,6 C -8,2 C 0,0 km/h (0 Bft)
26.12.2021 10:35 -9,7 C 3,6 C -9,0 C -7,8 C -7,8 C 1,9 C 89 % 92 % 1014,1 hPa 0,0 l/m 0,0 km/h (0 Bft) O-SO 112 0 min -11,2 C -7,8 C 0,0 km/h (0 Bft)
26.12.2021 10:40 -9,3 C 3,6 C -8,9 C -7,7 C -7,7 C 1,6 C 89 % 92 % 1014,1 hPa 0,0 l/m 0,0 km/h (0 Bft) O-SO 112 0 min -10,8 C -7,7 C 0,0 km/h (0 Bft)
26.12.2021 10:45 -8,9 C 3,7 C -8,6 C -7,3 C -7,3 C 1,6 C 89 % 92 % 1014,1 hPa 0,0 l/m 0,0 km/h (0 Bft) O-SO 112 0 min -10,4 C -7,3 C 0,0 km/h (0 Bft)
26.12.2021 10:50 -8,7 C 3,7 C -8,5 C -7,1 C -7,1 C 1,6 C 89 % 92 % 1014,3 hPa 0,0 l/m 0,0 km/h (0 Bft) O-SO 112 0 min -10,2 C -7,1 C 0,0 km/h (0 Bft)
26.12.2021 10:55 -8,4 C 3,7 C -8,1 C -7,1 C -7,1 C 1,3 C 89 % 92 % 1014,3 hPa 0,0 l/m 0,0 km/h (0 Bft) O-SO 112 0 min -9,9 C -7,1 C 0,0 km/h (0 Bft)
26.12.2021 11:00 -8,1 C 3,7 C -8,0 C -7,1 C -7,1 C 1,0 C 89 % 92 % 1014,3 hPa 0,0 l/m 0,0 km/h (0 Bft) O-SO 112 0 min -9,6 C -7,1 C 0,0 km/h (0 Bft)
26.12.2021 11:05 -7,7 C 3,7 C -7,7 C -6,9 C -6,9 C 0,8 C 89 % 92 % 1014,3 hPa 0,0 l/m 0,0 km/h (0 Bft) O-SO 112 0 min -9,2 C -6,9 C 0,0 km/h (0 Bft)
26.12.2021 11:10 -7,7 C 3,7 C -7,5 C -6,2 C -6,2 C 1,5 C 89 % 92 % 1014,4 hPa 0,0 l/m 0,0 km/h (0 Bft) O-SO 112 0 min -9,2 C -6,2 C 0,0 km/h (0 Bft)
26.12.2021 11:15 -7,5 C 3,6 C -7,3 C -5,0 C -5,0 C 2,5 C 89 % 92 % 1014,4 hPa 0,0 l/m 0,0 km/h (0 Bft) O-SO 112 0 min -9,0 C -5,0 C 0,0 km/h (0 Bft)
26.12.2021 11:20 -7,3 C 3,6 C -7,1 C -3,9 C -3,9 C 3,4 C 89 % 92 % 1014,4 hPa 0,0 l/m 0,0 km/h (0 Bft) O-SO 112 5 min -8,8 C -3,9 C 0,0 km/h (0 Bft)
26.12.2021 11:25 -7,1 C 3,6 C -6,7 C -2,4 C -2,4 C 4,7 C 89 % 92 % 1014,4 hPa 0,0 l/m 0,0 km/h (0 Bft) O-SO 112 5 min -8,6 C -2,4 C 0,0 km/h (0 Bft)
26.12.2021 11:30 -7,0 C 3,6 C -6,5 C -2,2 C -2,2 C 4,8 C 89 % 92 % 1014,0 hPa 0,0 l/m 0,0 km/h (0 Bft) O-SO 112 5 min -8,5 C -2,2 C 0,0 km/h (0 Bft)
26.12.2021 11:35 -6,7 C 3,6 C -6,2 C -2,2 C -2,2 C 4,5 C 89 % 92 % 1014,0 hPa 0,0 l/m 0,0 km/h (0 Bft) O-SO 112 5 min -8,2 C -2,2 C 0,0 km/h (0 Bft)
26.12.2021 11:40 -6,6 C 3,6 C -6,1 C -3,1 C -3,1 C 3,5 C 89 % 92 % 1014,0 hPa 0,0 l/m 0,0 km/h (0 Bft) O-SO 112 5 min -8,1 C -3,1 C 0,0 km/h (0 Bft)
26.12.2021 11:45 -6,4 C 3,6 C -5,8 C -3,8 C -3,8 C 2,6 C 89 % 92 % 1014,0 hPa 0,0 l/m 0,0 km/h (0 Bft) O-SO 112 0 min -7,9 C -3,8 C 0,0 km/h (0 Bft)
26.12.2021 11:50 -6,1 C 3,6 C -5,7 C -3,6 C -3,6 C 2,5 C 89 % 92 % 1013,7 hPa 0,0 l/m 0,0 km/h (0 Bft) O-SO 112 0 min -7,6 C -3,6 C 0,0 km/h (0 Bft)
26.12.2021 11:55 -5,9 C 3,6 C -5,6 C -3,0 C -3,0 C 2,9 C 89 % 92 % 1013,7 hPa 0,0 l/m 0,0 km/h (0 Bft) O-SO 112 0 min -7,4 C -3,0 C 0,0 km/h (0 Bft)
26.12.2021 12:00 -5,9 C 3,6 C -5,5 C -3,1 C -3,1 C 2,8 C 89 % 91 % 1013,7 hPa 0,0 l/m 0,0 km/h (0 Bft) O-SO 112 0 min -7,4 C -3,1 C 0,0 km/h (0 Bft)
26.12.2021 12:05 -5,7 C 3,6 C -5,3 C -3,4 C -3,4 C 2,3 C 89 % 91 % 1013,7 hPa 0,0 l/m 0,0 km/h (0 Bft) O-SO 112 0 min -7,2 C -3,4 C 0,0 km/h (0 Bft)
26.12.2021 12:10 -5,7 C 3,6 C -5,3 C -3,4 C -3,4 C 2,3 C 89 % 91 % 1013,9 hPa 0,0 l/m 0,0 km/h (0 Bft) O-SO 112 0 min -7,2 C -3,4 C 0,0 km/h (0 Bft)
26.12.2021 12:15 -5,3 C 3,6 C -5,0 C -3,5 C -3,5 C 1,8 C 89 % 91 % 1013,9 hPa 0,0 l/m 0,0 km/h (0 Bft) O-SO 112 0 min -6,8 C -3,5 C 0,0 km/h (0 Bft)
26.12.2021 12:20 -5,1 C 3,6 C -5,0 C -3,1 C -3,1 C 2,0 C 89 % 91 % 1013,9 hPa 0,0 l/m 0,0 km/h (0 Bft) O-SO 112 0 min -6,6 C -3,1 C 0,0 km/h (0 Bft)
26.12.2021 12:25 -4,9 C 3,6 C -4,9 C -3,3 C -3,3 C 1,6 C 89 % 91 % 1013,9 hPa 0,0 l/m 0,0 km/h (0 Bft) O-SO 112 0 min -6,4 C -3,3 C 0,0 km/h (0 Bft)
26.12.2021 12:30 -4,9 C 3,6 C -4,9 C -3,2 C -3,2 C 1,7 C 89 % 91 % 1013,4 hPa 0,0 l/m 0,0 km/h (0 Bft) O-SO 112 0 min -6,4 C -3,2 C 0,0 km/h (0 Bft)
26.12.2021 12:35 -4,9 C 3,7 C -4,7 C -3,4 C -3,4 C 1,5 C 89 % 91 % 1013,4 hPa 0,0 l/m 0,0 km/h (0 Bft) O-SO 112 0 min -6,4 C -3,4 C 0,0 km/h (0 Bft)
26.12.2021 12:40 -4,7 C 3,6 C -4,7 C -3,6 C -3,6 C 1,1 C 89 % 91 % 1013,4 hPa 0,0 l/m 0,0 km/h (0 Bft) O-SO 112 0 min -6,2 C -3,6 C 0,0 km/h (0 Bft)
26.12.2021 12:45 -4,6 C 3,6 C -4,6 C -3,5 C -3,5 C 1,1 C 89 % 91 % 1013,4 hPa 0,0 l/m 0,0 km/h (0 Bft) O-SO 112 0 min -6,1 C -3,5 C 0,0 km/h (0 Bft)
26.12.2021 12:50 -4,5 C 3,7 C -4,5 C -3,4 C -3,4 C 1,1 C 89 % 91 % 1013,4 hPa 0,0 l/m 0,0 km/h (0 Bft) O-SO 112 0 min -6,0 C -3,4 C 0,0 km/h (0 Bft)
26.12.2021 12:55 -4,3 C 3,7 C -4,3 C -3,1 C -3,1 C 1,2 C 89 % 91 % 1013,4 hPa 0,0 l/m 0,0 km/h (0 Bft) O-SO 112 0 min -5,8 C -3,1 C 0,0 km/h (0 Bft)
26.12.2021 13:00 -4,1 C 3,7 C -4,3 C -3,1 C -3,1 C 1,0 C 89 % 91 % 1013,4 hPa 0,0 l/m 0,0 km/h (0 Bft) O-SO 112 0 min -5,6 C -3,1 C 0,0 km/h (0 Bft)
26.12.2021 13:05 -4,1 C 3,7 C -4,3 C -3,2 C -3,2 C 0,9 C 89 % 91 % 1013,4 hPa 0,0 l/m 0,0 km/h (0 Bft) O-SO 112 0 min -5,6 C -3,2 C 0,0 km/h (0 Bft)
26.12.2021 13:10 -4,0 C 3,7 C -4,3 C -2,8 C -2,8 C 1,2 C 89 % 91 % 1013,5 hPa 0,0 l/m 0,0 km/h (0 Bft) O-SO 112 0 min -5,5 C -2,8 C 0,0 km/h (0 Bft)
26.12.2021 13:15 -3,9 C 3,7 C -4,2 C -2,7 C -2,7 C 1,2 C 89 % 90 % 1013,5 hPa 0,0 l/m 0,0 km/h (0 Bft) O-SO 112 0 min -5,4 C -2,7 C 0,0 km/h (0 Bft)
26.12.2021 13:20 -3,9 C 3,7 C -4,1 C -2,8 C -2,8 C 1,1 C 88 % 90 % 1013,5 hPa 0,0 l/m 0,0 km/h (0 Bft) O-SO 112 0 min -5,6 C -2,8 C 0,0 km/h (0 Bft)
26.12.2021 13:25 -3,7 C 3,7 C -3,9 C -2,5 C -2,5 C 1,2 C 88 % 91 % 1013,5 hPa 0,0 l/m 0,0 km/h (0 Bft) O-SO 112 0 min -5,4 C -2,5 C 0,0 km/h (0 Bft)
26.12.2021 13:30 -3,6 C 3,7 C -3,8 C -2,3 C -2,3 C 1,3 C 88 % 91 % 1013,5 hPa 0,0 l/m 0,0 km/h (0 Bft) O-SO 112 0 min -5,3 C -2,3 C 0,0 km/h (0 Bft)
26.12.2021 13:35 -3,5 C 3,7 C -3,7 C -2,5 C -2,5 C 1,0 C 88 % 90 % 1013,5 hPa 0,0 l/m 0,0 km/h (0 Bft) O-SO 112 0 min -5,2 C -2,5 C 0,0 km/h (0 Bft)
26.12.2021 13:40 -3,3 C 3,7 C -3,7 C -2,6 C -2,6 C 0,7 C 88 % 90 % 1013,5 hPa 0,0 l/m 0,0 km/h (0 Bft) O-SO 112 0 min -5,0 C -2,6 C 0,0 km/h (0 Bft)
26.12.2021 13:45 -3,3 C 3,7 C -3,8 C -2,9 C -2,9 C 0,4 C 88 % 90 % 1013,5 hPa 0,0 l/m 0,0 km/h (0 Bft) O-SO 112 0 min -5,0 C -2,9 C 0,0 km/h (0 Bft)
26.12.2021 13:50 -3,3 C 3,7 C -3,8 C -3,1 C -3,1 C 0,2 C 87 % 90 % 1013,0 hPa 0,0 l/m 0,0 km/h (0 Bft) O-SO 112 0 min -5,1 C -3,1 C 0,0 km/h (0 Bft)
26.12.2021 13:55 -3,3 C 3,7 C -3,7 C -3,2 C -3,2 C 0,1 C 87 % 90 % 1013,0 hPa 0,0 l/m 0,0 km/h (0 Bft) O-SO 112 0 min -5,1 C -3,2 C 0,0 km/h (0 Bft)
26.12.2021 14:00 -3,5 C 3,7 C -3,7 C -3,3 C -3,3 C 0,2 C 87 % 90 % 1013,0 hPa 0,0 l/m 0,0 km/h (0 Bft) O-SO 112 0 min -5,3 C -3,3 C 0,0 km/h (0 Bft)
26.12.2021 14:05 -3,3 C 3,7 C -3,7 C -3,2 C -3,2 C 0,1 C 86 % 90 % 1013,0 hPa 0,0 l/m 0,2 km/h (0 Bft) O-SO 112 0 min -5,3 C -3,2 C 0,0 km/h (0 Bft)
26.12.2021 14:10 -3,3 C 3,7 C -3,5 C -3,2 C -3,2 C 0,1 C 86 % 90 % 1013,0 hPa 0,0 l/m 0,2 km/h (0 Bft) O-SO 112 0 min -5,3 C -3,2 C 0,0 km/h (0 Bft)
26.12.2021 14:15 -3,3 C 3,7 C -3,5 C -3,1 C -3,1 C 0,2 C 86 % 90 % 1013,0 hPa 0,0 l/m 0,0 km/h (0 Bft) O-SO 112 0 min -5,3 C -3,1 C 0,0 km/h (0 Bft)
26.12.2021 14:20 -3,2 C 3,7 C -3,4 C -3,1 C -3,1 C 0,1 C 86 % 90 % 1013,0 hPa 0,0 l/m 0,0 km/h (0 Bft) O-SO 112 0 min -5,2 C -3,1 C 0,0 km/h (0 Bft)
26.12.2021 14:25 -3,1 C 3,7 C -3,4 C -3,1 C -3,2 C 0,0 C 86 % 90 % 1013,0 hPa 0,0 l/m 0,0 km/h (0 Bft) O-SO 112 0 min -5,1 C -3,2 C 0,0 km/h (0 Bft)
26.12.2021 14:30 -3,2 C 3,7 C -3,4 C -3,2 C -3,2 C 0,0 C 86 % 90 % 1012,9 hPa 0,0 l/m 0,0 km/h (0 Bft) O-SO 112 0 min -5,2 C -3,2 C 0,0 km/h (0 Bft)
26.12.2021 14:35 -3,2 C 3,7 C -3,4 C -3,2 C -3,2 C 0,0 C 86 % 90 % 1012,9 hPa 0,0 l/m 0,0 km/h (0 Bft) O-SO 112 0 min -5,2 C -3,2 C 0,0 km/h (0 Bft)
26.12.2021 14:40 -3,1 C 3,7 C -3,4 C -3,1 C -3,2 C 0,0 C 85 % 89 % 1012,9 hPa 0,0 l/m 0,0 km/h (0 Bft) O-SO 112 0 min -5,3 C -3,2 C 0,0 km/h (0 Bft)
26.12.2021 14:45 -3,1 C 3,7 C -3,3 C -3,2 C -3,3 C 0,0 C 85 % 89 % 1012,9 hPa 0,0 l/m 0,2 km/h (0 Bft) O-SO 112 0 min -5,3 C -3,3 C 0,0 km/h (0 Bft)
26.12.2021 14:50 -3,1 C 3,7 C -3,3 C -3,2 C -3,3 C 0,0 C 85 % 89 % 1013,1 hPa 0,0 l/m 0,2 km/h (0 Bft) O-SO 112 0 min -5,3 C -3,3 C 0,0 km/h (0 Bft)
26.12.2021 14:55 -3,1 C 3,7 C -3,3 C -3,2 C -3,3 C 0,0 C 85 % 89 % 1013,1 hPa 0,0 l/m 0,0 km/h (0 Bft) O-SO 112 0 min -5,3 C -3,3 C 0,0 km/h (0 Bft)
26.12.2021 15:00 -3,1 C 3,7 C -3,3 C -3,1 C -3,2 C 0,0 C 85 % 89 % 1013,1 hPa 0,0 l/m 0,0 km/h (0 Bft) O-SO 112 0 min -5,3 C -3,2 C 0,0 km/h (0 Bft)
26.12.2021 15:05 -2,9 C 3,7 C -3,2 C -3,0 C -3,2 C 0,0 C 85 % 89 % 1013,1 hPa 0,0 l/m 0,0 km/h (0 Bft) O-SO 112 0 min -5,1 C -3,2 C 0,0 km/h (0 Bft)
26.12.2021 15:10 -2,9 C 3,7 C -3,2 C -3,0 C -3,2 C 0,0 C 85 % 89 % 1013,0 hPa 0,0 l/m 0,0 km/h (0 Bft) O-SO 112 0 min -5,1 C -3,2 C 0,0 km/h (0 Bft)
26.12.2021 15:15 -2,9 C 3,7 C -3,1 C -3,0 C -3,2 C 0,0 C 84 % 89 % 1013,0 hPa 0,0 l/m 0,0 km/h (0 Bft) O-SO 112 0 min -5,2 C -3,2 C 0,0 km/h (0 Bft)
26.12.2021 15:20 -3,0 C 3,7 C -3,1 C -3,0 C -3,1 C 0,0 C 84 % 89 % 1013,0 hPa 0,0 l/m 0,0 km/h (0 Bft) O-SO 112 0 min -5,3 C -3,1 C 0,0 km/h (0 Bft)
26.12.2021 15:25 -3,0 C 3,7 C -3,1 C -3,1 C -3,2 C 0,0 C 84 % 89 % 1013,0 hPa 0,0 l/m 0,0 km/h (0 Bft) O-SO 112 0 min -5,3 C -3,2 C 0,0 km/h (0 Bft)
26.12.2021 15:30 -2,9 C 3,7 C -3,1 C -3,0 C -3,2 C 0,0 C 84 % 89 % 1012,7 hPa 0,0 l/m 0,0 km/h (0 Bft) O-SO 112 0 min -5,2 C -3,2 C 0,0 km/h (0 Bft)
26.12.2021 15:35 -2,9 C 3,7 C -3,1 C -3,0 C -3,3 C 0,0 C 84 % 89 % 1012,7 hPa 0,0 l/m 0,0 km/h (0 Bft) O-SO 112 0 min -5,2 C -3,3 C 0,0 km/h (0 Bft)
26.12.2021 15:40 -2,9 C 3,7 C -3,2 C -3,1 C -3,4 C 0,0 C 84 % 88 % 1012,7 hPa 0,0 l/m 0,0 km/h (0 Bft) O-SO 112 0 min -5,2 C -3,4 C 0,0 km/h (0 Bft)
26.12.2021 15:45 -2,9 C 3,7 C -3,2 C -3,1 C -3,5 C 0,0 C 84 % 88 % 1012,7 hPa 0,0 l/m 0,0 km/h (0 Bft) O-SO 112 0 min -5,2 C -3,5 C 1,8 km/h (1 Bft)
26.12.2021 15:50 -3,1 C 3,7 C -3,3 C -3,3 C -3,6 C 0,0 C 84 % 88 % 1012,9 hPa 0,0 l/m 0,0 km/h (0 Bft) O-SO 112 0 min -5,4 C -3,6 C 0,0 km/h (0 Bft)
26.12.2021 15:55 -3,1 C 3,7 C -3,3 C -3,3 C -3,6 C 0,0 C 84 % 89 % 1012,9 hPa 0,0 l/m 0,0 km/h (0 Bft) O-SO 112 0 min -5,4 C -3,6 C 0,0 km/h (0 Bft)
26.12.2021 16:00 -3,1 C 3,7 C -3,4 C -3,3 C -3,7 C 0,0 C 84 % 89 % 1012,9 hPa 0,0 l/m 0,0 km/h (0 Bft) O-SO 112 0 min -5,4 C -3,7 C 0,0 km/h (0 Bft)
26.12.2021 16:05 -3,2 C 3,7 C -3,4 C -3,4 C -3,7 C 0,0 C 84 % 89 % 1012,9 hPa 0,0 l/m 0,0 km/h (0 Bft) O-SO 112 0 min -5,5 C -3,7 C 0,0 km/h (0 Bft)
26.12.2021 16:10 -3,2 C 3,7 C -3,4 C -3,4 C -3,7 C 0,0 C 84 % 89 % 1013,2 hPa 0,0 l/m 0,0 km/h (0 Bft) O-SO 112 0 min -5,5 C -3,7 C 0,0 km/h (0 Bft)
26.12.2021 16:15 -3,1 C 3,7 C -3,5 C -3,3 C -3,7 C 0,0 C 84 % 89 % 1013,2 hPa 0,0 l/m 0,0 km/h (0 Bft) O-SO 112 0 min -5,4 C -3,7 C 0,0 km/h (0 Bft)
26.12.2021 16:20 -3,3 C 3,7 C -3,4 C -3,4 C -3,7 C 0,0 C 84 % 89 % 1013,2 hPa 0,0 l/m 0,0 km/h (0 Bft) O-SO 112 0 min -5,6 C -3,7 C 0,0 km/h (0 Bft)
26.12.2021 16:25 -3,3 C 3,7 C -3,4 C -3,4 C -3,7 C 0,0 C 84 % 89 % 1013,2 hPa 0,0 l/m 0,0 km/h (0 Bft) O-SO 112 0 min -5,6 C -3,7 C 0,0 km/h (0 Bft)
26.12.2021 16:30 -3,1 C 3,7 C -3,4 C -3,3 C -3,7 C 0,0 C 84 % 89 % 1012,9 hPa 0,0 l/m 0,0 km/h (0 Bft) O-SO 112 0 min -5,4 C -3,7 C 1,8 km/h (1 Bft)
26.12.2021 16:35 -3,2 C 3,7 C -3,5 C -3,4 C -3,7 C 0,0 C 84 % 89 % 1012,9 hPa 0,0 l/m 0,2 km/h (0 Bft) O-SO 112 0 min -5,5 C -3,7 C 0,0 km/h (0 Bft)
26.12.2021 16:40 -3,1 C 3,7 C -3,4 C -3,3 C -3,6 C 0,0 C 84 % 89 % 1012,9 hPa 0,0 l/m 0,0 km/h (0 Bft) O-SO 112 0 min -5,4 C -3,6 C 0,0 km/h (0 Bft)
26.12.2021 16:45 -3,1 C 3,7 C -3,4 C -3,3 C -3,6 C 0,0 C 84 % 89 % 1012,9 hPa 0,0 l/m 0,0 km/h (0 Bft) O-SO 112 0 min -5,4 C -3,6 C 0,0 km/h (0 Bft)
26.12.2021 16:50 -3,1 C 3,7 C -3,4 C -3,3 C -3,7 C 0,0 C 84 % 89 % 1012,8 hPa 0,0 l/m 0,0 km/h (0 Bft) O-SO 112 0 min -5,4 C -3,7 C 0,0 km/h (0 Bft)
26.12.2021 16:55 -3,1 C 3,7 C -3,5 C -3,3 C -3,7 C 0,0 C 84 % 89 % 1012,8 hPa 0,0 l/m 0,0 km/h (0 Bft) O-SO 112 0 min -5,4 C -3,7 C 0,0 km/h (0 Bft)
26.12.2021 17:00 -3,1 C 3,7 C -3,5 C -3,3 C -3,7 C 0,0 C 84 % 89 % 1012,8 hPa 0,0 l/m 0,0 km/h (0 Bft) O-SO 112 0 min -5,4 C -3,7 C 0,0 km/h (0 Bft)
26.12.2021 17:05 -3,3 C 3,7 C -3,4 C -3,4 C -3,7 C 0,0 C 84 % 89 % 1012,8 hPa 0,0 l/m 0,0 km/h (0 Bft) O-SO 112 0 min -5,6 C -3,7 C 0,0 km/h (0 Bft)
26.12.2021 17:10 -3,3 C 3,7 C -3,5 C -3,4 C -3,7 C 0,0 C 84 % 89 % 1012,6 hPa 0,0 l/m 0,0 km/h (0 Bft) O-SO 112 0 min -5,6 C -3,7 C 0,0 km/h (0 Bft)
26.12.2021 17:15 -3,3 C 3,7 C -3,5 C -3,4 C -3,7 C 0,0 C 84 % 90 % 1012,6 hPa 0,0 l/m 0,0 km/h (0 Bft) O-SO 112 0 min -5,6 C -3,7 C 0,0 km/h (0 Bft)
26.12.2021 17:20 -3,1 C 3,7 C -3,5 C -3,3 C -3,7 C 0,0 C 84 % 90 % 1012,6 hPa 0,0 l/m 0,0 km/h (0 Bft) O-SO 112 0 min -5,4 C -3,7 C 1,6 km/h (1 Bft)
26.12.2021 17:25 -3,2 C 3,7 C -3,4 C -3,3 C -3,6 C 0,0 C 84 % 89 % 1012,6 hPa 0,0 l/m 0,0 km/h (0 Bft) O-SO 112 0 min -5,5 C -3,6 C 1,9 km/h (1 Bft)
26.12.2021 17:30 -3,1 C 3,7 C -3,3 C -3,2 C -3,5 C 0,0 C 84 % 89 % 1012,4 hPa 0,0 l/m 0,0 km/h (0 Bft) O-SO 112 0 min -5,4 C -3,5 C 0,0 km/h (0 Bft)
26.12.2021 17:35 -3,1 C 3,7 C -3,3 C -3,2 C -3,5 C 0,0 C 84 % 89 % 1012,4 hPa 0,0 l/m 0,2 km/h (0 Bft) O-SO 112 0 min -5,4 C -3,5 C 2,3 km/h (1 Bft)
26.12.2021 17:40 -2,9 C 3,7 C -3,3 C -3,1 C -3,4 C 0,0 C 84 % 88 % 1012,4 hPa 0,0 l/m 0,3 km/h (0 Bft) O-SO 112 0 min -5,2 C -3,4 C 1,6 km/h (1 Bft)
26.12.2021 17:45 -2,9 C 3,7 C -3,3 C -3,1 C -3,4 C 0,0 C 83 % 88 % 1012,4 hPa 0,0 l/m 0,6 km/h (0 Bft) O-SO 112 0 min -5,4 C -3,4 C 3,1 km/h (1 Bft)
26.12.2021 17:50 -2,7 C 3,7 C -3,3 C -2,9 C -3,3 C 0,0 C 83 % 88 % 1012,6 hPa 0,0 l/m 0,6 km/h (0 Bft) O-SO 112 0 min -5,2 C -3,3 C 0,0 km/h (0 Bft)
26.12.2021 17:55 -2,7 C 3,7 C -3,3 C -2,9 C -3,3 C 0,0 C 83 % 88 % 1012,6 hPa 0,0 l/m 0,5 km/h (0 Bft) O-SO 112 0 min -5,2 C -3,3 C 3,2 km/h (1 Bft)
26.12.2021 18:00 -2,7 C 3,7 C -3,3 C -2,9 C -3,2 C 0,0 C 83 % 88 % 1012,6 hPa 0,0 l/m 0,3 km/h (0 Bft) O-SO 112 0 min -5,2 C -3,2 C 0,0 km/h (0 Bft)
26.12.2021 18:05 -2,7 C 3,7 C -3,2 C -2,9 C -3,2 C 0,0 C 82 % 88 % 1012,6 hPa 0,0 l/m 0,0 km/h (0 Bft) O-SO 112 0 min -5,3 C -3,2 C 0,0 km/h (0 Bft)
26.12.2021 18:10 -2,8 C 3,7 C -3,2 C -2,9 C -3,1 C 0,0 C 82 % 88 % 1012,7 hPa 0,0 l/m 0,0 km/h (0 Bft) O-SO 112 0 min -5,4 C -3,1 C 0,0 km/h (0 Bft)
26.12.2021 18:15 -2,8 C 3,7 C -3,1 C -2,9 C -3,1 C 0,0 C 82 % 88 % 1012,7 hPa 0,0 l/m 0,0 km/h (0 Bft) O-SO 112 0 min -5,4 C -3,1 C 0,0 km/h (0 Bft)
26.12.2021 18:20 -2,7 C 3,7 C -3,1 C -2,8 C -3,1 C 0,0 C 82 % 88 % 1012,7 hPa 0,0 l/m 0,0 km/h (0 Bft) O-SO 112 0 min -5,3 C -3,1 C 0,0 km/h (0 Bft)
26.12.2021 18:25 -2,7 C 3,7 C -3,0 C -2,8 C -3,0 C 0,0 C 82 % 89 % 1012,7 hPa 0,0 l/m 0,0 km/h (0 Bft) O-SO 112 0 min -5,3 C -3,0 C 0,0 km/h (0 Bft)
26.12.2021 18:30 -2,7 C 3,7 C -3,0 C -2,8 C -3,0 C 0,0 C 82 % 89 % 1012,7 hPa 0,0 l/m 0,0 km/h (0 Bft) O-SO 112 0 min -5,3 C -3,0 C 0,0 km/h (0 Bft)
26.12.2021 18:35 -2,7 C 3,7 C -2,9 C -2,8 C -2,9 C 0,0 C 82 % 88 % 1012,7 hPa 0,0 l/m 0,0 km/h (0 Bft) O-SO 112 0 min -5,3 C -2,9 C 0,0 km/h (0 Bft)
26.12.2021 18:40 -2,7 C 3,7 C -2,9 C -2,8 C -2,9 C 0,0 C 82 % 88 % 1012,7 hPa 0,0 l/m 0,0 km/h (0 Bft) O-SO 112 0 min -5,3 C -2,9 C 0,0 km/h (0 Bft)
26.12.2021 18:45 -2,7 C 3,7 C -2,9 C -2,8 C -2,9 C 0,0 C 82 % 89 % 1012,7 hPa 0,0 l/m 0,0 km/h (0 Bft) O-SO 112 0 min -5,3 C -2,9 C 0,0 km/h (0 Bft)
26.12.2021 18:50 -2,7 C 3,7 C -2,9 C -2,8 C -2,9 C 0,0 C 82 % 89 % 1012,3 hPa 0,0 l/m 0,0 km/h (0 Bft) O-SO 112 0 min -5,3 C -2,9 C 0,0 km/h (0 Bft)
26.12.2021 18:55 -2,7 C 3,7 C -3,0 C -2,8 C -2,9 C 0,0 C 82 % 89 % 1012,3 hPa 0,0 l/m 0,0 km/h (0 Bft) O-SO 112 0 min -5,3 C -2,9 C 0,0 km/h (0 Bft)
26.12.2021 19:00 -2,7 C 3,7 C -3,0 C -2,8 C -3,0 C 0,0 C 82 % 89 % 1012,3 hPa 0,0 l/m 0,0 km/h (0 Bft) O-SO 112 0 min -5,3 C -3,0 C 0,0 km/h (0 Bft)
26.12.2021 19:05 -2,7 C 3,7 C -3,1 C -2,8 C -3,0 C 0,0 C 82 % 89 % 1012,3 hPa 0,0 l/m 0,0 km/h (0 Bft) O-SO 112 0 min -5,3 C -3,0 C 0,0 km/h (0 Bft)
26.12.2021 19:10 -2,7 C 3,7 C -3,2 C -2,8 C -3,1 C 0,0 C 82 % 89 % 1012,4 hPa 0,0 l/m 0,0 km/h (0 Bft) O-SO 112 0 min -5,3 C -3,1 C 0,0 km/h (0 Bft)
26.12.2021 19:15 -2,9 C 3,7 C -3,4 C -3,0 C -3,1 C 0,0 C 82 % 88 % 1012,4 hPa 0,0 l/m 0,0 km/h (0 Bft) O-SO 112 0 min -5,5 C -3,1 C 0,0 km/h (0 Bft)
26.12.2021 19:20 -2,9 C 3,7 C -3,4 C -3,0 C -3,2 C 0,0 C 82 % 89 % 1012,4 hPa 0,0 l/m 0,0 km/h (0 Bft) O-SO 112 0 min -5,5 C -3,2 C 0,0 km/h (0 Bft)
26.12.2021 19:25 -2,9 C 3,7 C -3,4 C -3,0 C -3,3 C 0,0 C 82 % 89 % 1012,4 hPa 0,0 l/m 0,0 km/h (0 Bft) O-SO 112 0 min -5,5 C -3,3 C 0,0 km/h (0 Bft)
26.12.2021 19:30 -3,0 C 3,7 C -3,5 C -3,1 C -3,4 C 0,0 C 82 % 89 % 1011,9 hPa 0,0 l/m 0,0 km/h (0 Bft) O-SO 112 0 min -5,6 C -3,4 C 0,0 km/h (0 Bft)
26.12.2021 19:35 -2,9 C 3,7 C -3,5 C -3,1 C -3,4 C 0,0 C 82 % 89 % 1011,9 hPa 0,0 l/m 0,0 km/h (0 Bft) O-SO 112 0 min -5,5 C -3,4 C 0,0 km/h (0 Bft)
26.12.2021 19:40 -3,1 C 3,7 C -3,5 C -3,2 C -3,4 C 0,0 C 82 % 89 % 1011,9 hPa 0,0 l/m 0,0 km/h (0 Bft) O-SO 112 0 min -5,7 C -3,4 C 0,0 km/h (0 Bft)
26.12.2021 19:45 -3,1 C 3,7 C -3,5 C -3,2 C -3,4 C 0,0 C 82 % 89 % 1011,9 hPa 0,0 l/m 0,0 km/h (0 Bft) O-SO 112 0 min -5,7 C -3,4 C 0,0 km/h (0 Bft)
26.12.2021 19:50 -2,9 C 3,7 C -3,5 C -3,1 C -3,4 C 0,0 C 82 % 90 % 1012,0 hPa 0,0 l/m 0,0 km/h (0 Bft) O-SO 112 0 min -5,5 C -3,4 C 0,0 km/h (0 Bft)
26.12.2021 19:55 -3,1 C 3,7 C -3,5 C -3,2 C -3,4 C 0,0 C 82 % 90 % 1012,0 hPa 0,0 l/m 0,0 km/h (0 Bft) O-SO 112 0 min -5,7 C -3,4 C 0,0 km/h (0 Bft)
26.12.2021 20:00 -3,1 C 3,7 C -3,5 C -3,2 C -3,4 C 0,0 C 82 % 90 % 1012,0 hPa 0,0 l/m 0,0 km/h (0 Bft) O-SO 112 0 min -5,7 C -3,4 C 0,0 km/h (0 Bft)
26.12.2021 20:05 -3,1 C 3,7 C -3,5 C -3,2 C -3,4 C 0,0 C 83 % 90 % 1012,0 hPa 0,0 l/m 0,0 km/h (0 Bft) O-SO 112 0 min -5,6 C -3,4 C 0,0 km/h (0 Bft)
26.12.2021 20:10 -3,1 C 3,7 C -3,5 C -3,2 C -3,4 C 0,0 C 83 % 90 % 1012,3 hPa 0,0 l/m 0,0 km/h (0 Bft) O-SO 112 0 min -5,6 C -3,4 C 0,0 km/h (0 Bft)
26.12.2021 20:15 -3,1 C 3,7 C -3,5 C -3,2 C -3,4 C 0,0 C 83 % 90 % 1012,3 hPa 0,0 l/m 0,0 km/h (0 Bft) O-SO 112 0 min -5,6 C -3,4 C 0,0 km/h (0 Bft)
26.12.2021 20:20 -3,1 C 3,7 C -3,5 C -3,2 C -3,4 C 0,0 C 83 % 89 % 1012,3 hPa 0,0 l/m 0,0 km/h (0 Bft) O-SO 112 0 min -5,6 C -3,4 C 0,0 km/h (0 Bft)
26.12.2021 20:25 -3,1 C 3,7 C -3,5 C -3,2 C -3,5 C 0,0 C 83 % 89 % 1012,3 hPa 0,0 l/m 0,0 km/h (0 Bft) O-SO 112 0 min -5,6 C -3,5 C 0,0 km/h (0 Bft)
26.12.2021 20:30 -3,1 C 3,7 C -3,5 C -3,2 C -3,5 C 0,0 C 83 % 89 % 1012,6 hPa 0,0 l/m 0,0 km/h (0 Bft) O-SO 112 0 min -5,6 C -3,5 C 0,0 km/h (0 Bft)
26.12.2021 20:35 -3,2 C 3,7 C -3,7 C -3,4 C -3,7 C 0,0 C 83 % 90 % 1012,6 hPa 0,0 l/m 0,0 km/h (0 Bft) O-SO 112 0 min -5,7 C -3,7 C 0,0 km/h (0 Bft)
26.12.2021 20:40 -3,2 C 3,7 C -3,7 C -3,4 C -3,7 C 0,0 C 83 % 90 % 1012,6 hPa 0,0 l/m 0,0 km/h (0 Bft) O-SO 112 0 min -5,7 C -3,7 C 0,0 km/h (0 Bft)
26.12.2021 20:45 -3,3 C 3,7 C -3,7 C -3,4 C -3,7 C 0,0 C 83 % 90 % 1012,6 hPa 0,0 l/m 0,0 km/h (0 Bft) O-SO 112 0 min -5,8 C -3,7 C 0,0 km/h (0 Bft)
26.12.2021 20:50 -3,3 C 3,7 C -3,7 C -3,4 C -3,6 C 0,0 C 83 % 90 % 1012,2 hPa 0,0 l/m 0,0 km/h (0 Bft) O-SO 112 0 min -5,8 C -3,6 C 0,0 km/h (0 Bft)
26.12.2021 20:55 -3,3 C 3,7 C -3,7 C -3,4 C -3,6 C 0,0 C 83 % 90 % 1012,2 hPa 0,0 l/m 0,0 km/h (0 Bft) O-SO 112 0 min -5,8 C -3,6 C 0,0 km/h (0 Bft)
26.12.2021 21:00 -3,3 C 3,7 C -3,7 C -3,4 C -3,6 C 0,0 C 83 % 90 % 1012,2 hPa 0,0 l/m 0,0 km/h (0 Bft) O-SO 112 0 min -5,8 C -3,6 C 0,0 km/h (0 Bft)
26.12.2021 21:05 -3,3 C 3,7 C -3,8 C -3,4 C -3,6 C 0,0 C 83 % 90 % 1012,2 hPa 0,0 l/m 0,0 km/h (0 Bft) O-SO 112 0 min -5,8 C -3,6 C 0,0 km/h (0 Bft)
26.12.2021 21:10 -3,3 C 3,7 C -3,9 C -3,4 C -3,7 C 0,0 C 83 % 90 % 1011,9 hPa 0,0 l/m 0,0 km/h (0 Bft) O-SO 112 0 min -5,8 C -3,7 C 0,0 km/h (0 Bft)
26.12.2021 21:15 -3,3 C 3,7 C -3,9 C -3,4 C -3,7 C 0,0 C 83 % 90 % 1011,9 hPa 0,0 l/m 0,0 km/h (0 Bft) O-SO 112 0 min -5,8 C -3,7 C 0,0 km/h (0 Bft)
26.12.2021 21:20 -3,3 C 3,7 C -3,8 C -3,4 C -3,6 C 0,0 C 83 % 90 % 1011,9 hPa 0,0 l/m 0,0 km/h (0 Bft) O-SO 112 0 min -5,8 C -3,6 C 0,0 km/h (0 Bft)
26.12.2021 21:25 -3,3 C 3,7 C -3,6 C -3,3 C -3,4 C 0,0 C 83 % 90 % 1011,9 hPa 0,0 l/m 0,0 km/h (0 Bft) O-SO 112 0 min -5,8 C -3,4 C 0,0 km/h (0 Bft)
26.12.2021 21:30 -3,3 C 3,7 C -3,5 C -3,3 C -3,3 C 0,0 C 83 % 90 % 1011,9 hPa 0,0 l/m 0,0 km/h (0 Bft) O-SO 112 0 min -5,8 C -3,3 C 0,0 km/h (0 Bft)
26.12.2021 21:35 -3,1 C 3,7 C -3,4 C -3,1 C -3,1 C 0,0 C 83 % 90 % 1011,9 hPa 0,0 l/m 0,0 km/h (0 Bft) O-SO 112 0 min -5,6 C -3,1 C 0,0 km/h (0 Bft)
26.12.2021 21:40 -3,2 C 3,7 C -3,3 C -3,1 C -3,1 C 0,1 C 83 % 90 % 1011,9 hPa 0,0 l/m 0,0 km/h (0 Bft) O-SO 112 0 min -5,7 C -3,1 C 0,0 km/h (0 Bft)
26.12.2021 21:45 -3,2 C 3,7 C -3,3 C -3,0 C -3,0 C 0,2 C 83 % 90 % 1011,9 hPa 0,0 l/m 0,0 km/h (0 Bft) O-SO 112 0 min -5,7 C -3,0 C 0,0 km/h (0 Bft)
26.12.2021 21:50 -3,1 C 3,7 C -3,3 C -3,0 C -3,0 C 0,1 C 83 % 90 % 1011,9 hPa 0,0 l/m 0,0 km/h (0 Bft) O-SO 112 0 min -5,6 C -3,0 C 0,0 km/h (0 Bft)
26.12.2021 21:55 -3,1 C 3,7 C -3,3 C -3,1 C -3,1 C 0,0 C 83 % 90 % 1011,9 hPa 0,0 l/m 0,0 km/h (0 Bft) O-SO 112 0 min -5,6 C -3,1 C 0,0 km/h (0 Bft)
26.12.2021 22:00 -3,1 C 3,7 C -3,2 C -3,0 C -3,0 C 0,1 C 83 % 90 % 1011,9 hPa 0,0 l/m 0,0 km/h (0 Bft) O-SO 112 0 min -5,6 C -3,0 C 0,0 km/h (0 Bft)
26.12.2021 22:05 -2,9 C 3,7 C -3,1 C -2,9 C -2,9 C 0,0 C 83 % 89 % 1011,9 hPa 0,0 l/m 0,0 km/h (0 Bft) O-SO 112 0 min -5,4 C -2,9 C 0,0 km/h (0 Bft)
26.12.2021 22:10 -3,0 C 3,7 C -3,1 C -2,9 C -2,9 C 0,1 C 83 % 89 % 1011,6 hPa 0,0 l/m 0,0 km/h (0 Bft) O-SO 112 0 min -5,5 C -2,9 C 0,0 km/h (0 Bft)
26.12.2021 22:15 -2,9 C 3,8 C -2,9 C -2,8 C -2,8 C 0,1 C 83 % 90 % 1011,6 hPa 0,0 l/m 0,0 km/h (0 Bft) O-SO 112 0 min -5,4 C -2,8 C 0,0 km/h (0 Bft)
26.12.2021 22:20 -2,9 C 3,8 C -2,9 C -2,7 C -2,7 C 0,2 C 83 % 90 % 1011,6 hPa 0,0 l/m 0,0 km/h (0 Bft) O-SO 112 0 min -5,4 C -2,7 C 0,0 km/h (0 Bft)
26.12.2021 22:25 -2,9 C 3,8 C -2,9 C -2,7 C -2,7 C 0,2 C 84 % 90 % 1011,6 hPa 0,0 l/m 0,0 km/h (0 Bft) O-SO 112 0 min -5,2 C -2,7 C 0,0 km/h (0 Bft)
26.12.2021 22:30 -2,9 C 3,8 C -3,0 C -2,8 C -2,8 C 0,1 C 83 % 89 % 1011,5 hPa 0,0 l/m 0,0 km/h (0 Bft) O-SO 112 0 min -5,4 C -2,8 C 0,0 km/h (0 Bft)
26.12.2021 22:35 -2,9 C 3,7 C -2,9 C -2,8 C -2,8 C 0,1 C 83 % 90 % 1011,5 hPa 0,0 l/m 0,0 km/h (0 Bft) O-SO 112 0 min -5,4 C -2,8 C 0,0 km/h (0 Bft)
26.12.2021 22:40 -2,7 C 3,7 C -2,9 C -2,7 C -2,7 C 0,0 C 83 % 90 % 1011,5 hPa 0,0 l/m 0,0 km/h (0 Bft) O-SO 112 0 min -5,2 C -2,7 C 0,0 km/h (0 Bft)
26.12.2021 22:45 -2,8 C 3,8 C -2,9 C -2,7 C -2,7 C 0,1 C 83 % 90 % 1011,5 hPa 0,0 l/m 0,0 km/h (0 Bft) O-SO 112 0 min -5,3 C -2,7 C 0,0 km/h (0 Bft)
26.12.2021 22:50 -2,8 C 3,8 C -2,9 C -2,6 C -2,6 C 0,2 C 83 % 90 % 1011,2 hPa 0,0 l/m 0,0 km/h (0 Bft) O-SO 112 0 min -5,3 C -2,6 C 0,0 km/h (0 Bft)
26.12.2021 22:55 -2,7 C 3,8 C -2,8 C -2,6 C -2,6 C 0,1 C 83 % 90 % 1011,2 hPa 0,0 l/m 0,0 km/h (0 Bft) O-SO 112 0 min -5,2 C -2,6 C 0,0 km/h (0 Bft)
26.12.2021 23:00 -2,7 C 3,8 C -2,7 C -2,5 C -2,5 C 0,2 C 84 % 90 % 1011,2 hPa 0,0 l/m 0,0 km/h (0 Bft) O-SO 112 0 min -5,0 C -2,5 C 0,0 km/h (0 Bft)
26.12.2021 23:05 -2,7 C 3,8 C -2,7 C -2,5 C -2,5 C 0,2 C 84 % 90 % 1011,2 hPa 0,0 l/m 0,0 km/h (0 Bft) O-SO 112 0 min -5,0 C -2,5 C 0,0 km/h (0 Bft)
26.12.2021 23:10 -2,5 C 3,8 C -2,7 C -2,4 C -2,4 C 0,1 C 84 % 90 % 1011,2 hPa 0,0 l/m 0,0 km/h (0 Bft) O-SO 112 0 min -4,8 C -2,4 C 0,0 km/h (0 Bft)
26.12.2021 23:15 -2,6 C 3,8 C -2,7 C -2,3 C -2,3 C 0,3 C 84 % 90 % 1011,2 hPa 0,0 l/m 0,0 km/h (0 Bft) O-SO 112 0 min -4,9 C -2,3 C 0,0 km/h (0 Bft)
26.12.2021 23:20 -2,5 C 3,8 C -2,6 C -2,2 C -2,2 C 0,3 C 84 % 90 % 1011,2 hPa 0,0 l/m 0,0 km/h (0 Bft) O-SO 112 0 min -4,8 C -2,2 C 0,0 km/h (0 Bft)
26.12.2021 23:25 -2,5 C 3,8 C -2,6 C -2,2 C -2,2 C 0,3 C 84 % 90 % 1011,2 hPa 0,0 l/m 0,0 km/h (0 Bft) O-SO 112 0 min -4,8 C -2,2 C 0,0 km/h (0 Bft)
26.12.2021 23:30 -2,5 C 3,8 C -2,5 C -2,1 C -2,1 C 0,4 C 84 % 90 % 1011,2 hPa 0,0 l/m 0,0 km/h (0 Bft) O-SO 112 0 min -4,8 C -2,1 C 0,0 km/h (0 Bft)
26.12.2021 23:35 -2,4 C 3,8 C -2,5 C -2,0 C -2,0 C 0,4 C 84 % 90 % 1011,2 hPa 0,0 l/m 0,0 km/h (0 Bft) O-SO 112 0 min -4,7 C -2,0 C 0,0 km/h (0 Bft)
26.12.2021 23:40 -2,3 C 3,8 C -2,4 C -2,0 C -2,0 C 0,3 C 85 % 90 % 1011,2 hPa 0,0 l/m 0,0 km/h (0 Bft) O-SO 112 0 min -4,5 C -2,0 C 0,0 km/h (0 Bft)
26.12.2021 23:45 -2,1 C 3,8 C -2,3 C -1,8 C -1,8 C 0,3 C 85 % 90 % 1011,2 hPa 0,0 l/m 0,0 km/h (0 Bft) O-SO 112 0 min -4,3 C -1,8 C 0,0 km/h (0 Bft)
26.12.2021 23:50 -2,2 C 3,8 C -2,3 C -1,7 C -1,7 C 0,5 C 85 % 90 % 1011,2 hPa 0,0 l/m 0,0 km/h (0 Bft) O-SO 112 0 min -4,4 C -1,7 C 0,0 km/h (0 Bft)
26.12.2021 23:55 -2,1 C 3,8 C -2,1 C -1,6 C -1,6 C 0,5 C 85 % 90 % 1011,2 hPa 0,0 l/m 0,0 km/h (0 Bft) O-SO 112 0 min -4,3 C -1,6 C 0,0 km/h (0 Bft)
_ Min-Zeit 05:25 07:10 02:35 03:45 03:45 00:00 18:05 15:40 22:50 - 00:00 - - - 05:25 03:45 00:00
Minimum _ -13,9 C 3,6 C -13,3 C -14,3 C -15,4 C 0,0 C 82 % 88 % 1011,2 hPa - 0,0 km/h (0 Bft) - - - -15,6 C -15,4 C 0,0 km/h (0 Bft)
_ Max-Zeit 23:45 00:00 23:55 23:55 23:55 11:30 10:15 10:25 00:10 00:00 17:45 - - 11:20 23:45 23:55 17:55
Maximum _ -2,1 C 4,3 C -2,1 C -1,6 C -1,6 C 4,8 C 89 % 92 % 1015,4 hPa 0,0 l/m 0,6 km/h
O-SO (0 Bft)
- - 5 min -4,3 C -1,6 C 3,2 km/h
O-SO (1 Bft)
Durchschnitt _ -7,8 C 3,8 C -7,7 C -7,8 C -8,2 C 0,3 C 86 % 90 % 1013,5 hPa #0,0 l/m 0,0 km/h (0 Bft) N - #25 min. -9,8 C -8,2 C 0,1 km/h (0 Bft)
2021 www.wetterstation-wechselburg.de